www.pogodaiklimat.ru

Погода и климат >> Архив погоды >> Ирак >> Кербела


ПОГОДА в Кербеле

  • Прогноз погоды в Кербеле
  • Монитор погоды в Кербеле

АРХИВ ПОГОДЫ в Кербеле

Время (UTC), дата Ветер
(напр.,м/с)
 
Видим.   Явления Облачность Т
(С)
Тd
(С)
f
(%)
Тe
(С)
Тes
(С)
Комфортность P
(гПа)
Po
(гПа)
Тmin
(С)
Tmax
(С)
R
(мм)
R24
(мм)
S
(см)
03 13.08 С 2 10 км 5/5 840 м
[Cu hum]
+32.5 +9.5 24 +32 +32 жарко 996.8 993.6
06 13.08 СЗ 2 10 км 5/5 840 м
[Cu hum]
+36.0 +11.6 23 +36 +41 очень
жарко
997.7 994.5 +32.4
09 13.08 С 2 10 км 4/4 840 м
[Cu hum]
+45.4 +13.7 16 +46 +57 опасность
перегрева
998.2 995.1
12 13.08 СЗ 2 10 км 4/4 840 м
[Cu hum]
+48.6 +11.5 12 +48 +55 опасность
перегрева
997.2 994.1
15 13.08 СЗ 2 10 км 5/5 900 м
[Cu hum]
+46.2 +11.3 13 +45 +45 опасность
перегрева
997.1 994.0
18 13.08 СЗ 2 10 км 5/5 900 м
[Cu hum]
+42.2 +9.7 14 +40 +40 очень
жарко
998.5 995.4 +49.0
21 13.08 СЗ 2 10 км 5/5 900 м
[Cu hum]
+39.5 +8.7 16 +38 +38 очень
жарко
998.5 995.3
06 14.08 З 3 10 км 1/1 900 м
[Cu hum]
+37.7 +11.9 21 +37 +45 очень
жарко
1001.6 998.4 +34.2
09 14.08 С 3 10 км ясно +45.6 +10.0 12 +44 +60 опасность
перегрева
1001.2 998.1
12 14.08 штиль 0 10 км 1/1 900 м
[Cu hum]
+48.0 +13.8 14 +48 +62 опасность
перегрева
1000.0 996.9
15 14.08 штиль 0 10 км 4/4 840 м
[Sc]
+45.6 +14.6 17 +46 +47 опасность
перегрева
999.6 996.5
18 14.08 штиль 0 10 км 3/3 840 м
[Cu hum]
+41.7 +14.2 20 +42 +42 опасность
перегрева
1000.9 997.8 +48.4
03 15.08 С 4 10 км 3/3 840 м
[Cu hum]
+33.0 +12.4 29 +33 +34 жарко 1002.5 999.3
06 15.08 СЗ 5 10 км 4/4 840 м
[Cu hum]
+37.6 +14.7 26 +39 +42 очень
душно
1003.5 1000.3 +32.8
09 15.08 С 4 10 км 3/3 840 м
[Cu hum]
+43.6 +14.0 18 +44 +53 опасность
перегрева
1003.1 1000.0
12 15.08 СЗ 9 10 км 1/1 840 м
[Cu hum]
+46.4 +9.2 11 +45 +46 опасность
перегрева
1001.2 998.1
15 15.08 СЗ 2 10 км ясно +44.6 +9.1 12 +43 +43 опасность
перегрева
1000.8 997.7
18 15.08 С 4 10 км ясно +39.8 +8.1 15 +38 +38 очень
жарко
1002.5 999.3 +46.6
21 15.08 СЗ 5 10 км ясно +36.8 +4.8 14 +34 +34 очень
жарко
1003.3 1000.1
06 16.08 СЗ 2 10 км ясно +34.5 +16.9 35 +37 +48 очень
душно
994.5 991.3 +30.4
12 16.08 СЗ 4 10 км ясно +43.6 +13.3 17 +43 +51 опасность
перегрева
1002.1 999.0
15 16.08 СЗ 3 10 км ясно +42.1 +10.4 15 +41 +41 опасность
перегрева
1001.1 998.0
18 16.08 СЗ 3 10 км ясно +37.0 +9.5 19 +36 +36 очень
жарко
1002.5 999.3 +43.8
21 16.08 СЗ 2 10 км ясно +35.4 +9.7 21 +34 +34 очень
жарко
1002.1 998.9
03 17.08 штиль 0 10 км ясно +31.4 +6.6 21 +30 +30 жарко 1002.7 999.4
06 17.08 штиль 0 10 км ясно +32.0 +7.4 22 +31 +45 жарко 1002.8 999.5 +31.2
09 17.08 СЗ 2 10 км ясно +39.2 +11.6 19 +38 +58 опасность
солнечного
удара
1002.3 999.1
12 17.08 СЗ 4 10 км ясно +41.5 +10.9 16 +40 +48 очень
жарко
1000.6 997.5
15 17.08 СЗ 2 10 км ясно +41.0 +12.8 19 +41 +41 опасность
перегрева
1009.3 1006.1
21 17.08 штиль 0 10 км ясно +34.5 +17.3 36 +38 +38 очень
душно
1009.7 1006.5
03 18.08 штиль 0 10 км ясно +30.0 +14.4 39 +32 +32 жарко 1001.1 997.8
06 18.08 С 4 10 км ясно +35.0 +18.2 37 +39 +46 очень
душно
1001.9 998.7 +29.8
09 18.08 С 2 10 км ясно +41.0 +18.6 27 +44 +64 опасность
перегрева
1001.8 998.6
15 18.08 СЗ 2 10 км ясно +42.2 +15.6 21 +43 +44 опасность
перегрева
1000.3 997.2
18 18.08 штиль 0 10 км 1/1 900 м
[Cu hum]
+37.8 +16.4 28 +40 +40 очень
душно
1002.4 999.2 +43.8
21 18.08 штиль 0 10 км ясно +35.2 +16.0 32 +37 +37 очень
душно
1002.3 999.1
03 19.08 штиль 0 10 км ясно +30.0 +12.8 35 +31 +31 жарко 1004.4 1001.1
06 19.08 С 5 10 км ясно +36.2 +15.9 30 +38 +44 очень
душно
1005.6 1002.4 +29.8
09 19.08 З 2 10 км ясно +42.6 +16.9 23 +45 +64 опасность
перегрева
1005.5 1002.3
12 19.08 штиль 0 10 км ясно +44.3 +14.0 17 +44 +59 опасность
перегрева
1004.0 1000.9
15 19.08 штиль 0 10 км ясно +42.3 +14.3 20 +43 +43 опасность
перегрева
1003.6 1000.5
18 19.08 штиль 0 10 км ясно +37.0 +18.6 34 +41 +41 опасность
перегрева
1004.8 1001.6 +44.8
21 19.08 штиль 0 10 км ясно +35.3 +15.9 32 +38 +38 очень
душно
1004.8 1001.6

 

Местоположение метеостанции Кербела (Ирак): широта 32.62 долгота 44.02 высота над уровнем моря 29 м.

В архиве по умолчанию представлена погода в Кербеле за последнюю неделю. Архивные данные за месяц целиком и за предыдущие месяцы, начиная с января 2011 года, Вы можете получить, выбрав интересующий диапазон дат из раскрывающегося списка и нажав кнопку "Ввод!".


*Определитесь, кто Вы:
робот инопланетянин человек

Внимание! Время в таблицах - всемирное. Для получения местного времени необходимо прибавить поправку, которая равна 3 ч.

Смотрите также архив погоды в соседних городах и на ближайших метеорологических станциях:

Погода в Хелле (Ирак) (45 км)
Погода в Багдаде (Ирак) (71 км)
Погода в Наджафе (Ирак) (77 км)
Погода в Эль-Азизии (Ирак) (104 км)
Погода в Эр-Рамади (Ирак) (113 км)
Погода в Дивании (Ирак) (115 км)
Погода в Хите (Ирак) (115 км)
Погода в Айн Аль-Тамаре (Ирак) (122 км)
Погода в Эль-Халисе (Ирак) (143 км)
Погода в Убайда Бин Аль Джарра (Ирак) (163 км)

Пояснения к столбцам:

Ветер - указаны скорость ветра в м/с - средняя за 10 мин, порывы в срок и между сроками (в фигурных скобках) и направление, откуда дует ветер: С - северный, СВ - северо-восточный, В - восточный, ЮВ - юго-восточный, Ю - южный, ЮЗ - юго-западный, З - западный, СЗ - северо-западный.
Видимость - горизонтальная дальность видимости в метрах или километрах. При видимости от 1 до 10 км при отсутствии осадков обычно наблюдается дымка, при ухудшении видимости до 1 км и менее - туман. В сухую погоду видимость может ухудшаться дымом, пылью или мглою.
Явления - указаны атмосферные явления, наблюдавшиеся в срок или в последний час перед сроком; фигурными скобками обозначены явления, наблюдавшиеся между сроками (за 1-3 часа до срока); квадратными скобками обозначены град или гололедные отложения с указанием их диаметра в мм.
Облачность - указаны через наклонную черту общая и нижняя облачность в баллах и высота нижней границы облаков в метрах; квадратными скобками обозначены формы облаков: Ci - перистые, Cs - перисто-слоистые, Cc - перисто-кучевые, Ac - высококучевые, As - высокослоистые, Sc - слоисто-кучевые, Ns - слоисто-дождевые, Cu - кучевые, Cb - кучево-дождевые. Подробнее классификацию облаков см. в Атласе облаков (PDF).
T - Температура воздуха - температура, измеренная на высоте 2 м над землей.
Td - Температура точки росы - температура, при понижении до которой содержащийся в воздухе водяной пар достигнет насыщения.
f - Относительная влажность воздуха - влажноcть воздуха, измеренная на высоте 2 м над землей.
Te - Эффективная температура - температура, которую ощущает одетый по сезону человек в тени. Характеристика душности погоды. При расчете учитывается влияние влажности воздуха и скорости ветра на теплоощущения человека.
Tes - Эффективная температура на солнце - температура, которую ощущает человек, с поправкой на солнечный нагрев. Характеристика знойности погоды. Зависит от высоты солнца над горизонтом, облачности и скорости ветра. Ночью, в пасмурную погоду, а также при ветре 12 м/с и более поправка равна нулю.
P - Атмосферное давление - приведенное к уровню моря атмосферное давление.
Po - Атмосферное давление - измеренное на уровне метеостанции атмосферное давление.
Tmin - Минимальная температура - минимум температуры воздуха на высоте 2 м над землей.
Tmax - Максимальная температура - максимум температуры воздуха на высоте 2 м над землей.
R - Количество осадков - Количество выпавших осадков за период времени, мм. При наведении курсора мыши на число - период времени, за который выпало указанное количество осадков.
R24 - Количество осадков - Количество выпавших осадков за 24 часа, мм.
S - Снежный покров - Высота снежного покрова, см. При наведении курсора мыши на число - состояние снежного покрова и степень покрытия местности в баллах.